Hourly Data Report for September 20, 2020

SHEARWATER RCS
NOVA SCOTIA
Current Station Operator: ECCC - MSC

44°37'47.000" N
63°30'48.000" W
24.00 m
8205092
71264
AAW

Download Data

Hourly Data (September 2020)
Hourly Data Report for September 20, 2020
TIME Temp Definition
°C
Dew Point Definition
°C
Rel Hum Definition
%
Wind Dir Definition
10's deg

Wind Spd Definition
km/h
Visibility Definition
km
Stn Press Definition
kPa
Hmdx Definition


Wind Chill Definition


Weather Definition


00:00 8.3 2.1 65 1 8   102.27     LegendNANA
01:00 7.7 1.8 66 36 8   102.29     LegendNANA
02:00 6.8 1.5 68 35 6   102.32     LegendNANA
03:00 4.3 2.0 85 32 7   102.36     LegendNANA
04:00 4.3 2.4 87   0   102.35     LegendNANA
05:00 3.8 2.6 92 31 6   102.43     LegendNANA
06:00 6.1 2.2 76 35 12   102.46     LegendNANA
07:00 7.5 2.6 71 35 7   102.53     LegendNANA
08:00 10.0 3.5 64 33 8   102.58     LegendNANA
09:00 12.0 4.1 58 32 12   102.62     LegendNANA
10:00 13.0 4.2 55 31 11   102.64     LegendNANA
11:00 13.9 3.8 50 32 15   102.63     LegendNANA
12:00 14.7 3.1 46 32 17   102.62     LegendNANA
13:00 13.7 2.9 48 34 16   102.63     LegendNANA
14:00 15.6 1.1 37 32 13   102.61     LegendNANA
15:00 15.2 -1.2 32 33 14   102.64     LegendNANA
16:00 14.5 -2.6 31 33 16   102.65     LegendNANA
17:00 13.7 -1.4 35 36 17   102.70     LegendNANA
18:00 11.6 -2.5 37 36 17   102.78     LegendNANA
19:00 9.8 -2.1 43 35 12   102.86     LegendNANA
20:00 9.0 0.9 57 36 10   102.93     LegendNANA
21:00 8.4 1.7 63 36 10   102.99     LegendNANA
22:00 7.8 2.6 70 36 9   103.02     LegendNANA
23:00 7.0 2.6 74 36 7   103.05     LegendNANA

Notes on Data Quality.

Legend

  • E = Estimated
  • M = Missing
  • NA = Not Available*
  • [empty] = Indicates an unobserved value
Date modified: